Location: Barcelona
(41.3830°N, 2.1830°E)
Time: 13:50:57
(UTC+01:00)

ISS - Pass Details

Date: 11 December 2017
Orbit: 402 x 406 km, 51.6° (Epoch: 16 December)

Event Time Altitude Azimuth Distance (km) Brightness Sun altitude
Rises 19:45:41 0° 307° (NW) 2,330 0.7 -26.1°
Reaches altitude 10° 19:47:47 10° 310° (NW) 1,466 -0.5 -26.5°
Enters shadow 19:48:22 14° 311° (NW) 1,233 -1.0 -26.6°
